Previsão horária em Al Hufuf

Hoje, 19 Junho, Sábado

Tempo Temperatura Precipitação Vento Pressão Humidade
00:00 +34°C° 0 mm 6 m/s 738 mmHg 11%
01:00 +33°C° 0 mm 6 m/s 738 mmHg 11%
02:00 +33°C° 0 mm 6 m/s 738 mmHg 12%
03:00 +32°C° 0 mm 6 m/s 738 mmHg 12%
04:00 +32°C° 0 mm 6 m/s 739 mmHg 12%
05:00 +32°C° 0 mm 6 m/s 739 mmHg 12%
06:00 +32°C° 0 mm 6 m/s 740 mmHg 12%
07:00 +35°C° 0 mm 7 m/s 740 mmHg 10%
08:00 +39°C° 0 mm 8 m/s 740 mmHg 9%
09:00 +43°C° 0 mm 9 m/s 740 mmHg 8%
10:00 +44°C° 0 mm 9 m/s 740 mmHg 7%
11:00 +46°C° 0 mm 8 m/s 739 mmHg 6%
12:00 +47°C° 0 mm 7 m/s 739 mmHg 6%
13:00 +49°C° 0 mm 7 m/s 739 mmHg 6%
14:00 +49°C° 0 mm 7 m/s 738 mmHg 5%
15:00 +50°C° 0 mm 7 m/s 738 mmHg 5%
16:00 +47°C° 0 mm 6 m/s 738 mmHg 7%
17:00 +45°C° 0 mm 6 m/s 738 mmHg 8%
18:00 +43°C° 0 mm 5 m/s 738 mmHg 10%
19:00 +41°C° 0 mm 5 m/s 738 mmHg 12%
20:00 +37°C° 0 mm 4 m/s 739 mmHg 14%
21:00 +35°C° 0 mm 3 m/s 739 mmHg 16%
22:00 +35°C° 0 mm 3 m/s 739 mmHg 16%
23:00 +34°C° 0 mm 4 m/s 739 mmHg 17%

Amanhã, 20 Junho, Domingo

Tempo Temperatura Precipitação Vento Pressão Humidade
00:00 +34°C° 0 mm 4 m/s 739 mmHg 17%
01:00 +33°C° 0 mm 4 m/s 739 mmHg 17%
02:00 +33°C° 0 mm 4 m/s 739 mmHg 17%
03:00 +32°C° 0 mm 4 m/s 739 mmHg 16%
04:00 +33°C° 0 mm 4 m/s 739 mmHg 15%
05:00 +33°C° 0 mm 4 m/s 739 mmHg 14%
06:00 +33°C° 0 mm 5 m/s 740 mmHg 13%
07:00 +36°C° 0 mm 6 m/s 740 mmHg 11%
08:00 +40°C° 0 mm 8 m/s 740 mmHg 10%
09:00 +45°C° 0 mm 10 m/s 740 mmHg 9%
10:00 +47°C° 0 mm 9 m/s 740 mmHg 8%
11:00 +49°C° 0 mm 9 m/s 740 mmHg 7%
12:00 +50°C° 0 mm 9 m/s 739 mmHg 6%
13:00 +50°C° 0 mm 9 m/s 739 mmHg 6%
14:00 +50°C° 0 mm 9 m/s 739 mmHg 6%
15:00 +50°C° 0 mm 9 m/s 739 mmHg 6%
16:00 +48°C° 0 mm 8 m/s 739 mmHg 8%
17:00 +45°C° 0 mm 7 m/s 739 mmHg 10%
18:00 +42°C° 0 mm 5 m/s 739 mmHg 12%
19:00 +40°C° 0 mm 5 m/s 739 mmHg 14%
20:00 +37°C° 0 mm 4 m/s 739 mmHg 15%
21:00 +35°C° 0 mm 3 m/s 739 mmHg 17%
22:00 +35°C° 0 mm 3 m/s 739 mmHg 17%
23:00 +34°C° 0 mm 3 m/s 739 mmHg 16%

Depois de amanhã, 21 Junho, Segunda-feira

Tempo Temperatura Precipitação Vento Pressão Humidade
00:00 +34°C° 0 mm 3 m/s 739 mmHg 16%
01:00 +33°C° 0 mm 3 m/s 739 mmHg 17%
02:00 +31°C° 0 mm 2 m/s 739 mmHg 18%
03:00 +30°C° 0 mm 2 m/s 739 mmHg 19%
04:00 +31°C° 0 mm 2 m/s 739 mmHg 17%
05:00 +32°C° 0 mm 2 m/s 739 mmHg 15%
06:00 +33°C° 0 mm 3 m/s 740 mmHg 13%
07:00 +36°C° 0 mm 4 m/s 740 mmHg 10%
08:00 +41°C° 0 mm 5 m/s 740 mmHg 8%
09:00 +45°C° 0 mm 6 m/s 740 mmHg 6%
10:00 +46°C° 0 mm 6 m/s 740 mmHg 6%
11:00 +49°C° 0 mm 7 m/s 739 mmHg 6%
12:00 +50°C° 0 mm 7 m/s 739 mmHg 6%
13:00 +50°C° 0 mm 7 m/s 739 mmHg 6%
14:00 +51°C° 0 mm 8 m/s 738 mmHg 6%
15:00 +51°C° 0 mm 9 m/s 738 mmHg 6%
16:00 +49°C° 0 mm 7 m/s 738 mmHg 7%
17:00 +46°C° 0 mm 6 m/s 738 mmHg 9%
18:00 +43°C° 0 mm 5 m/s 738 mmHg 10%
19:00 +41°C° 0 mm 4 m/s 738 mmHg 12%
20:00 +38°C° 0 mm 3 m/s 738 mmHg 13%
21:00 +36°C° 0 mm 2 m/s 739 mmHg 15%
22:00 +35°C° 0 mm 2 m/s 738 mmHg 15%
23:00 +35°C° 0 mm 3 m/s 738 mmHg 14%

22 Junho, Terça-feira

Tempo Temperatura Precipitação Vento Pressão Humidade
00:00 +35°C° 0 mm 3 m/s 738 mmHg 13%
01:00 +34°C° 0 mm 2 m/s 738 mmHg 15%
02:00 +31°C° 0 mm 2 m/s 738 mmHg 17%
03:00 +30°C° 0 mm 2 m/s 738 mmHg 19%
04:00 +31°C° 0 mm 2 m/s 738 mmHg 16%
05:00 +32°C° 0 mm 2 m/s 739 mmHg 12%
06:00 +35°C° 0 mm 3 m/s 739 mmHg 9%
07:00 +37°C° 0 mm 3 m/s 739 mmHg 8%
08:00 +41°C° 0 mm 4 m/s 739 mmHg 7%
09:00 +44°C° 0 mm 4 m/s 740 mmHg 5%
10:00 +47°C° 0 mm 5 m/s 739 mmHg 5%
11:00 +49°C° 0 mm 6 m/s 739 mmHg 5%
12:00 +51°C° 0 mm 7 m/s 739 mmHg 5%
13:00 +52°C° 0 mm 7 m/s 738 mmHg 5%
14:00 +52°C° 0 mm 7 m/s 738 mmHg 4%
15:00 +52°C° 0 mm 7 m/s 737 mmHg 4%
16:00 +49°C° 0 mm 6 m/s 738 mmHg 5%
17:00 +47°C° 0 mm 6 m/s 738 mmHg 6%
18:00 +45°C° 0 mm 5 m/s 738 mmHg 7%
19:00 +41°C° 0 mm 4 m/s 738 mmHg 9%
20:00 +37°C° 0 mm 3 m/s 739 mmHg 12%
21:00 +35°C° 0 mm 2 m/s 739 mmHg 15%
22:00 +34°C° 0 mm 2 m/s 739 mmHg 15%
23:00 +33°C° 0 mm 1 m/s 739 mmHg 16%

23 Junho, Quarta-feira

Tempo Temperatura Precipitação Vento Pressão Humidade
00:00 +32°C° 0 mm 1 m/s 738 mmHg 16%
01:00 +32°C° 0 mm 1 m/s 738 mmHg 20%
02:00 +31°C° 0 mm 1 m/s 738 mmHg 24%
03:00 +30°C° 0 mm 2 m/s 738 mmHg 28%
04:00 +31°C° 0 mm 1 m/s 739 mmHg 28%
05:00 +31°C° 0 mm 1 m/s 740 mmHg 27%
06:00 +29°C° 0 mm 0 m/s 740 mmHg 26%
07:00 +34°C° 0 mm 1 m/s 740 mmHg 22%
08:00 +37°C° 0 mm 1 m/s 740 mmHg 18%
09:00 +41°C° 0 mm 1 m/s 740 mmHg 14%
10:00 +43°C° 0 mm 1 m/s 740 mmHg 12%
11:00 +45°C° 0 mm 1 m/s 740 mmHg 9%
12:00 +46°C° 0 mm 1 m/s 740 mmHg 7%
13:00 +47°C° 0 mm 1 m/s 739 mmHg 6%
14:00 +48°C° 0 mm 1 m/s 739 mmHg 6%
15:00 +49°C° 0 mm 2 m/s 738 mmHg 5%
16:00 +47°C° 0 mm 3 m/s 738 mmHg 6%
17:00 +47°C° 0 mm 4 m/s 738 mmHg 8%
18:00 +45°C° 0 mm 5 m/s 738 mmHg 10%
19:00 +41°C° 0 mm 4 m/s 738 mmHg 18%
20:00 +37°C° 0 mm 3 m/s 739 mmHg 25%
21:00 +35°C° 0 mm 2 m/s 739 mmHg 33%
22:00 +34°C° 0 mm 2 m/s 739 mmHg 33%
23:00 +34°C° 0 mm 2 m/s 739 mmHg 33%

24 Junho, Quinta-feira

Tempo Temperatura Precipitação Vento Pressão Humidade
00:00 +32°C° 0 mm 2 m/s 739 mmHg 33%
01:00 +32°C° 0 mm 2 m/s 739 mmHg 34%
02:00 +31°C° 0 mm 2 m/s 739 mmHg 35%
03:00 +30°C° 0 mm 1 m/s 739 mmHg 35%
04:00 +31°C° 0 mm 2 m/s 739 mmHg 33%
05:00 +31°C° 0 mm 2 m/s 740 mmHg 31%
06:00 +32°C° 0 mm 2 m/s 740 mmHg 29%
07:00 +35°C° 0 mm 1 m/s 740 mmHg 24%
08:00 +37°C° 0 mm 1 m/s 741 mmHg 20%
09:00 +37°C° 0 mm 0 m/s 741 mmHg 15%
10:00 +39°C° 0 mm 0 m/s 740 mmHg 12%
11:00 +44°C° 0 mm 1 m/s 740 mmHg 10%
12:00 +47°C° 0 mm 2 m/s 740 mmHg 7%
13:00 +48°C° 0 mm 2 m/s 739 mmHg 6%
14:00 +48°C° 0 mm 2 m/s 739 mmHg 5%
15:00 +50°C° 0 mm 3 m/s 738 mmHg 5%
16:00 +47°C° 0 mm 3 m/s 738 mmHg 6%
17:00 +47°C° 0 mm 4 m/s 738 mmHg 8%
18:00 +45°C° 0 mm 5 m/s 738 mmHg 9%
19:00 +42°C° 0 mm 4 m/s 738 mmHg 13%
20:00 +38°C° 0 mm 4 m/s 739 mmHg 17%
21:00 +36°C° 0 mm 3 m/s 739 mmHg 20%
22:00 +35°C° 0 mm 3 m/s 739 mmHg 21%
23:00 +35°C° 0 mm 3 m/s 739 mmHg 22%
Mostrar mais